• In Germany
  • List of Countries
  • For 7 days
  • Water Temperature
  • Satellite Maps
  • Weather Map
  • Weather Widgets
  • user-avatar
    Login

    Hourly Weather Mayrhofen

    Today, 23 July, Sunday

    Time Temperature Precipitation Wind Pressure Humidity
    00:00 +12°C° 1 mm 1 mps 619 mmHg 94%
    01:00 +12°C° 1 mm 1 mps 619 mmHg 95%
    02:00 +11°C° 0.6 mm 1 mps 619 mmHg 94%
    03:00 +11°C° 0.6 mm 1 mps 619 mmHg 94%
    04:00 +10°C° 0.6 mm 0 mps 619 mmHg 94%
    05:00 +11°C° 0 mm 0 mps 620 mmHg 91%
    06:00 +12°C° 0 mm 0 mps 620 mmHg 88%
    07:00 +13°C° 0 mm 0 mps 621 mmHg 85%
    08:00 +14°C° 0.1 mm 0 mps 621 mmHg 77%
    09:00 +18°C° 0.1 mm 1 mps 622 mmHg 69%
    10:00 +19°C° 0.1 mm 1 mps 622 mmHg 61%
    11:00 +19°C° 0.3 mm 1 mps 622 mmHg 65%
    12:00 +19°C° 0.3 mm 1 mps 622 mmHg 68%
    13:00 +19°C° 0.3 mm 1 mps 622 mmHg 71%
    14:00 +18°C° 1.1 mm 1 mps 621 mmHg 76%
    15:00 +16°C° 1.1 mm 2 mps 621 mmHg 81%
    16:00 +15°C° 1.1 mm 2 mps 621 mmHg 86%
    17:00 +15°C° 0.9 mm 2 mps 620 mmHg 89%
    18:00 +14°C° 0.9 mm 1 mps 620 mmHg 92%
    19:00 +13°C° 0.9 mm 1 mps 620 mmHg 95%
    20:00 +13°C° 0.5 mm 1 mps 620 mmHg 96%
    21:00 +12°C° 0.5 mm 1 mps 620 mmHg 96%
    22:00 +12°C° 0.5 mm 1 mps 620 mmHg 97%
    23:00 +12°C° 0.2 mm 1 mps 619 mmHg 97%

    Tomorrow, 24 July, Monday

    Time Temperature Precipitation Wind Pressure Humidity
    00:00 +11°C° 0.2 mm 1 mps 619 mmHg 97%
    01:00 +11°C° 0.2 mm 1 mps 618 mmHg 98%
    02:00 +10°C° 0.8 mm 0 mps 618 mmHg 97%
    03:00 +10°C° 0.8 mm 0 mps 617 mmHg 97%
    04:00 +9°C° 0.8 mm 0 mps 617 mmHg 97%
    05:00 +10°C° 0.6 mm 0 mps 617 mmHg 96%
    06:00 +11°C° 0.6 mm 0 mps 616 mmHg 94%
    07:00 +11°C° 0.6 mm 0 mps 616 mmHg 93%
    08:00 +13°C° 0.9 mm 1 mps 616 mmHg 89%
    09:00 +14°C° 0.9 mm 1 mps 616 mmHg 85%
    10:00 +14°C° 0.9 mm 1 mps 616 mmHg 81%
    11:00 +14°C° 1.7 mm 1 mps 616 mmHg 83%
    12:00 +14°C° 1.7 mm 1 mps 615 mmHg 85%
    13:00 +13°C° 1.7 mm 1 mps 615 mmHg 87%
    14:00 +12°C° 3.5 mm 1 mps 614 mmHg 90%
    15:00 +10°C° 3.5 mm 2 mps 614 mmHg 93%
    16:00 +10°C° 3.5 mm 2 mps 614 mmHg 96%
    17:00 +9°C° 2.9 mm 2 mps 613 mmHg 97%
    18:00 +8°C° 2.9 mm 2 mps 613 mmHg 97%
    19:00 +7°C° 2.9 mm 2 mps 613 mmHg 97%
    20:00 +7°C° 1.2 mm 2 mps 613 mmHg 97%
    21:00 +7°C° 1.2 mm 2 mps 613 mmHg 97%
    22:00 +6°C° 1.2 mm 2 mps 614 mmHg 97%
    23:00 +6°C° 0.2 mm 2 mps 613 mmHg 96%

    Day after tomorrow, 25 July, Tuesday

    Time Temperature Precipitation Wind Pressure Humidity
    00:00 +6°C° 0.2 mm 2 mps 613 mmHg 96%
    01:00 +5°C° 0.2 mm 2 mps 613 mmHg 95%
    02:00 +5°C° 0 mm 2 mps 612 mmHg 95%
    03:00 +4°C° 0 mm 2 mps 612 mmHg 95%
    04:00 +4°C° 0 mm 2 mps 611 mmHg 95%
    05:00 +5°C° 0 mm 2 mps 612 mmHg 92%
    06:00 +5°C° 0 mm 2 mps 612 mmHg 89%
    07:00 +6°C° 0 mm 2 mps 612 mmHg 85%
    08:00 +8°C° 0 mm 2 mps 613 mmHg 78%
    09:00 +9°C° 0 mm 2 mps 613 mmHg 70%
    10:00 +12°C° 0 mm 2 mps 614 mmHg 62%
    11:00 +12°C° 0.2 mm 2 mps 614 mmHg 62%
    12:00 +13°C° 0.2 mm 2 mps 614 mmHg 61%
    13:00 +13°C° 0.2 mm 2 mps 614 mmHg 61%
    14:00 +13°C° 0.3 mm 2 mps 614 mmHg 62%
    15:00 +13°C° 0.3 mm 2 mps 614 mmHg 63%
    16:00 +12°C° 0.3 mm 2 mps 613 mmHg 64%
    17:00 +10°C° 0.4 mm 2 mps 613 mmHg 70%
    18:00 +9°C° 0.4 mm 2 mps 613 mmHg 76%
    19:00 +8°C° 0.4 mm 2 mps 613 mmHg 82%
    20:00 +8°C° 0.3 mm 1 mps 612 mmHg 86%
    21:00 +7°C° 0.3 mm 1 mps 612 mmHg 90%
    22:00 +6°C° 0.3 mm 1 mps 612 mmHg 93%
    23:00 +6°C° 0.2 mm 1 mps 612 mmHg 94%

    26 July, Wednesday

    Time Temperature Precipitation Wind Pressure Humidity
    00:00 +5°C° 0.2 mm 1 mps 612 mmHg 94%
    01:00 +5°C° 0.2 mm 1 mps 611 mmHg 95%
    02:00 +5°C° 0.1 mm 1 mps 611 mmHg 94%
    03:00 +5°C° 0.1 mm 1 mps 611 mmHg 94%
    04:00 +4°C° 0.1 mm 1 mps 611 mmHg 94%
    05:00 +5°C° 0.1 mm 1 mps 611 mmHg 91%
    06:00 +6°C° 0.1 mm 1 mps 612 mmHg 88%
    07:00 +7°C° 0.1 mm 1 mps 612 mmHg 85%
    08:00 +8°C° 0.1 mm 1 mps 613 mmHg 80%
    09:00 +9°C° 0.1 mm 2 mps 613 mmHg 74%
    10:00 +10°C° 0.1 mm 2 mps 614 mmHg 69%
    11:00 +12°C° 0.2 mm 2 mps 614 mmHg 66%
    12:00 +13°C° 0.2 mm 2 mps 615 mmHg 63%
    13:00 +13°C° 0.2 mm 3 mps 615 mmHg 59%
    14:00 +13°C° 0.3 mm 3 mps 615 mmHg 62%
    15:00 +12°C° 0.3 mm 3 mps 615 mmHg 65%
    16:00 +12°C° 0.3 mm 3 mps 615 mmHg 68%
    17:00 +11°C° 0.3 mm 3 mps 615 mmHg 74%
    18:00 +10°C° 0.3 mm 2 mps 615 mmHg 80%
    19:00 +9°C° 0.3 mm 2 mps 615 mmHg 86%
    20:00 +8°C° 0.5 mm 2 mps 615 mmHg 89%
    21:00 +7°C° 0.5 mm 2 mps 615 mmHg 92%
    22:00 +7°C° 0.5 mm 2 mps 615 mmHg 94%
    23:00 +7°C° 0.4 mm 2 mps 615 mmHg 95%

    27 July, Thursday

    Time Temperature Precipitation Wind Pressure Humidity
    00:00 +7°C° 0.4 mm 2 mps 616 mmHg 95%
    01:00 +6°C° 0.4 mm 2 mps 616 mmHg 95%
    02:00 +6°C° 0.6 mm 2 mps 616 mmHg 95%
    03:00 +6°C° 0.6 mm 2 mps 616 mmHg 95%
    04:00 +6°C° 0.6 mm 2 mps 616 mmHg 95%
    05:00 +7°C° 0.5 mm 2 mps 616 mmHg 94%
    06:00 +7°C° 0.5 mm 2 mps 617 mmHg 93%
    07:00 +7°C° 0.5 mm 2 mps 617 mmHg 92%
    08:00 +8°C° 0.2 mm 2 mps 617 mmHg 88%
    09:00 +9°C° 0.2 mm 2 mps 618 mmHg 85%
    10:00 +10°C° 0.2 mm 2 mps 618 mmHg 82%
    11:00 +13°C° 0 mm 2 mps 619 mmHg 73%
    12:00 +15°C° 0 mm 2 mps 620 mmHg 65%
    13:00 +17°C° 0 mm 2 mps 620 mmHg 56%
    14:00 +17°C° 0 mm 2 mps 620 mmHg 57%
    15:00 +17°C° 0 mm 2 mps 620 mmHg 57%
    16:00 +17°C° 0 mm 2 mps 620 mmHg 58%
    17:00 +16°C° 0.1 mm 2 mps 620 mmHg 65%
    18:00 +15°C° 0.1 mm 2 mps 620 mmHg 72%
    19:00 +14°C° 0.1 mm 2 mps 619 mmHg 80%
    20:00 +12°C° 0 mm 1 mps 619 mmHg 85%
    21:00 +10°C° 0 mm 1 mps 619 mmHg 89%
    22:00 +9°C° 0 mm 1 mps 619 mmHg 94%
    23:00 +8°C° 0 mm 1 mps 619 mmHg 94%

    28 July, Friday

    Time Temperature Precipitation Wind Pressure Humidity
    00:00 +8°C° 0 mm 1 mps 618 mmHg 94%
    01:00 +7°C° 0 mm 1 mps 618 mmHg 94%
    02:00 +7°C° 0 mm 1 mps 618 mmHg 93%
    03:00 +7°C° 0 mm 1 mps 618 mmHg 92%
    04:00 +7°C° 0 mm 1 mps 618 mmHg 91%
    05:00 +9°C° 0 mm 1 mps 619 mmHg 85%
    06:00 +11°C° 0 mm 1 mps 620 mmHg 79%
    07:00 +13°C° 0 mm 1 mps 621 mmHg 73%
    08:00 +15°C° 0 mm 1 mps 622 mmHg 64%
    09:00 +18°C° 0 mm 1 mps 623 mmHg 54%
    10:00 +20°C° 0 mm 1 mps 623 mmHg 45%
    11:00 +21°C° 0 mm 1 mps 623 mmHg 44%
    12:00 +22°C° 0 mm 1 mps 624 mmHg 42%
    13:00 +23°C° 0 mm 2 mps 624 mmHg 41%
    14:00 +21°C° 0 mm 2 mps 623 mmHg 45%
    15:00 +21°C° 0 mm 2 mps 623 mmHg 49%
    16:00 +20°C° 0 mm 2 mps 623 mmHg 52%
    17:00 +19°C° 0.2 mm 2 mps 623 mmHg 62%
    18:00 +19°C° 0.2 mm 1 mps 622 mmHg 71%
    19:00 +16°C° 0.2 mm 1 mps 622 mmHg 80%
    20:00 +14°C° 0 mm 1 mps 621 mmHg 85%
    21:00 +12°C° 0 mm 1 mps 621 mmHg 90%
    22:00 +10°C° 0 mm 0 mps 621 mmHg 95%
    23:00 +11°C° 0 mm 1 mps 621 mmHg 95%
    Show more